Overview Statistics Trail Chart Weather Telemetry Raw packets
 

This is the latest recevied weather packets stored in our database for station/object CW79215. If no packets are shown the sender has not sent any weather packets the latest 10 day(s).

<< 19 20 21 22 23 24 25 >>
Time Temp. Humidity Pressure Rain* Wind** Luminosity Snow
1788248133 23.33° C 52% 1032.5 hPa - - - -
1788247233 22.22° C 55% 1032.5 hPa - - - -
1788246333 21.11° C 60% 1032.5 hPa - - - -
1788245433 20° C 64% 1032.6 hPa - - - -
1788244533 18.33° C 69% 1032.6 hPa - - - -
1788243633 16.67° C 74% 1032.5 hPa - - - -
1788242733 16.67° C 75% 1032.5 hPa - - - -
1788241833 16.11° C 76% 1032.3 hPa - - - -
1788240933 15° C 83% 1032.1 hPa - - - -
1788240033 14.44° C 84% 1032.2 hPa - - - -
1788239133 14.44° C 83% 1032.2 hPa - - - -
1788238232 13.89° C 84% 1032.1 hPa - - - -
1788237333 13.89° C 85% 1032.1 hPa - - - -
1788236432 13.89° C 85% 1032.1 hPa - - - -
1788235532 13.89° C 85% 1032 hPa - - - -
1788234632 13.89° C 84% 1031.9 hPa - - - -
1788233746 14.44° C 84% 1032 hPa - - - -
1788232832 13.89° C 85% 1032 hPa - - - -
1788231932 14.44° C 85% 1032 hPa - - - -
1788231031 13.89° C 84% 1031.9 hPa - - - -
1788230133 14.44° C 83% 1031.8 hPa - - - -
1788229233 14.44° C 84% 1031.9 hPa - - - -
1788228333 14.44° C 83% 1032 hPa - - - -
1788227433 14.44° C 83% 1032 hPa - - - -
1788226533 14.44° C 81% 1032 hPa - - - -

* Rain since midnight (hover to see other rain measurements)
** Current wind speed in m/s (hover to see current wind gust speed)